| time (UTC) | temp C | wind direction | speed KPH | gust KPH | rain 1hr cm | rain 24hr cm | rain mn cm | humidity % | barometer mb |
| 20260831080503 | 16 | 74 | 0.0 | 1.6 | 0.00 | 0.00 | 0.00 | 52 | 1016.8 |
| 20260831080003 | 16 | 72 | 0.0 | 3.2 | 0.00 | 0.00 | 0.00 | 53 | 1016.8 |
| 20260831075503 | 16 | 71 | 0.0 | 1.6 | 0.00 | 0.00 | 0.00 | 53 | 1017.1 |
| 20260831075003 | 16 | 71 | 0.0 | 1.6 | 0.00 | 0.00 | 0.00 | 52 | 1017.0 |
| 20260831074503 | 16 | 71 | 0.0 | 1.6 | 0.00 | 0.00 | 0.00 | 52 | 1017.1 |
| 20260831074003 | 16 | 0 | 0.0 | 0.0 | 0.00 | 0.00 | 0.00 | 52 | 1017.2 |
| 20260831073503 | 16 | 0 | 0.0 | 0.0 | 0.00 | 0.00 | 0.00 | 51 | 1017.2 |
| 20260831073003 | 16 | 0 | 0.0 | 0.0 | 0.00 | 0.00 | 0.00 | 50 | 1017.2 |
| 20260831072003 | 16 | 0 | 0.0 | 0.0 | 0.00 | 0.00 | 0.00 | 50 | 1017.0 |
| 20260831071503 | 17 | 0 | 0.0 | 0.0 | 0.00 | 0.00 | 0.00 | 49 | 1017.0 |
| 20260831071003 | 17 | 0 | 0.0 | 0.0 | 0.00 | 0.00 | 0.00 | 49 | 1017.0 |
| 20260831070503 | 17 | 0 | 0.0 | 0.0 | 0.00 | 0.00 | 0.00 | 49 | 1017.1 |
| 20260831070005 | 17 | 0 | 0.0 | 0.0 | 0.00 | 0.00 | 0.00 | 49 | 1017.1 |
| 20260831065503 | 17 | 71 | 0.0 | 1.6 | 0.00 | 0.00 | 0.00 | 49 | 1017.0 |
| 20260831064503 | 17 | 82 | 0.0 | 1.6 | 0.00 | 0.00 | 0.00 | 49 | 1017.1 |
| 20260831064003 | 17 | 82 | 0.0 | 1.6 | 0.00 | 0.00 | 0.00 | 49 | 1017.1 |
| 20260831063503 | 17 | 85 | 0.0 | 1.6 | 0.00 | 0.00 | 0.00 | 49 | 1017.1 |
| 20260831063003 | 17 | 0 | 0.0 | 0.0 | 0.00 | 0.00 | 0.00 | 49 | 1017.2 |
| 20260831062502 | 17 | 73 | 0.0 | 1.6 | 0.00 | 0.00 | 0.00 | 49 | 1017.2 |
| 20260831062003 | 17 | 0 | 1.6 | 0.0 | 0.00 | 0.00 | 0.00 | 49 | 1017.2 |
| 20260831061503 | 18 | 74 | 1.6 | 3.2 | 0.00 | 0.00 | 0.00 | 48 | 1017.2 |
| 20260831061003 | 18 | 82 | 1.6 | 3.2 | 0.00 | 0.00 | 0.00 | 48 | 1017.3 |
| 20260831055503 | 18 | 0 | 0.0 | 0.0 | 0.00 | 0.00 | 0.00 | 47 | 1017.3 |
| 20260831055003 | 18 | 0 | 0.0 | 0.0 | 0.00 | 0.00 | 0.00 | 47 | 1017.4 |
| 20260831054503 | 18 | 0 | 0.0 | 0.0 | 0.00 | 0.00 | 0.00 | 47 | 1017.5 |
| 20260831054003 | 18 | 0 | 0.0 | 0.0 | 0.00 | 0.00 | 0.00 | 46 | 1017.5 |
| 20260831053502 | 18 | 0 | 0.0 | 0.0 | 0.00 | 0.00 | 0.00 | 45 | 1017.4 |
| 20260831053003 | 19 | 0 | 0.0 | 0.0 | 0.00 | 0.00 | 0.00 | 45 | 1017.4 |
| 20260831052503 | 19 | 0 | 0.0 | 0.0 | 0.00 | 0.00 | 0.00 | 44 | 1017.4 |
| 20260831052004 | 19 | 0 | 0.0 | 0.0 | 0.00 | 0.00 | 0.00 | 44 | 1017.5 |
| 20260831051503 | 20 | 0 | 0.0 | 0.0 | 0.00 | 0.00 | 0.00 | 44 | 1017.4 |
| 20260831051003 | 20 | 0 | 0.0 | 0.0 | 0.00 | 0.00 | 0.00 | 43 | 1017.4 |
| 20260831050003 | 20 | 0 | 0.0 | 0.0 | 0.00 | 0.00 | 0.00 | 42 | 1017.4 |
| 20260831045003 | 20 | 0 | 0.0 | 0.0 | 0.00 | 0.00 | 0.00 | 41 | 1017.4 |
| 20260831044003 | 20 | 0 | 0.0 | 0.0 | 0.00 | 0.00 | 0.00 | 40 | 1017.5 |
| 20260831043003 | 21 | 0 | 0.0 | 0.0 | 0.00 | 0.00 | 0.00 | 37 | 1017.3 |
| 20260831042502 | 21 | 0 | 0.0 | 0.0 | 0.00 | 0.00 | 0.00 | 38 | 1017.2 |
| 20260831042003 | 21 | 208 | 0.0 | 3.2 | 0.00 | 0.00 | 0.00 | 37 | 1017.1 |
| 20260831041503 | 21 | 207 | 0.0 | 1.6 | 0.00 | 0.00 | 0.00 | 37 | 1017.0 |
| 20260831040504 | 21 | 195 | 0.0 | 3.2 | 0.00 | 0.00 | 0.00 | 37 | 1017.0 |
| 20260831040003 | 21 | 196 | 0.0 | 1.6 | 0.00 | 0.00 | 0.00 | 36 | 1016.9 |
| 20260831035503 | 22 | 0 | 0.0 | 0.0 | 0.00 | 0.00 | 0.00 | 36 | 1016.9 |
| 20260831034003 | 22 | 0 | 0.0 | 0.0 | 0.00 | 0.00 | 0.00 | 37 | 1016.7 |
| 20260831033502 | 22 | 0 | 1.6 | 0.0 | 0.00 | 0.00 | 0.00 | 37 | 1016.6 |
| 20260831033003 | 22 | 146 | 1.6 | 8.0 | 0.00 | 0.00 | 0.00 | 37 | 1016.6 |
| 20260831032503 | 22 | 150 | 1.6 | 6.4 | 0.00 | 0.00 | 0.00 | 37 | 1016.6 |
| 20260831032002 | 22 | 153 | 1.6 | 4.8 | 0.00 | 0.00 | 0.00 | 36 | 1016.4 |
| 20260831031503 | 22 | 145 | 1.6 | 6.4 | 0.00 | 0.00 | 0.00 | 36 | 1016.4 |
| 20260831031003 | 22 | 148 | 4.8 | 4.8 | 0.00 | 0.00 | 0.00 | 36 | 1016.3 |
| 20260831030504 | 22 | 146 | 6.4 | 6.4 | 0.00 | 0.00 | 0.00 | 36 | 1016.3 |
| 20260831030003 | 23 | 159 | 8.0 | 12.9 | 0.00 | 0.00 | 0.00 | 36 | 1016.3 |
| 20260831025004 | 23 | 170 | 8.0 | 14.5 | 0.00 | 0.00 | 0.00 | 35 | 1016.1 |
| 20260831024503 | 23 | 155 | 8.0 | 14.5 | 0.00 | 0.00 | 0.00 | 35 | 1016.2 |
| 20260831024003 | 23 | 158 | 8.0 | 14.5 | 0.00 | 0.00 | 0.00 | 34 | 1016.2 |
| 20260831023504 | 23 | 158 | 8.0 | 12.9 | 0.00 | 0.00 | 0.00 | 34 | 1016.2 |
| 20260831022004 | 24 | 177 | 6.4 | 11.3 | 0.00 | 0.00 | 0.00 | 32 | 1016.3 |
| 20260831021503 | 24 | 187 | 3.2 | 14.5 | 0.00 | 0.00 | 0.00 | 31 | 1016.1 |
| 20260831021003 | 24 | 173 | 1.6 | 11.3 | 0.00 | 0.00 | 0.00 | 29 | 1016.2 |
| 20260831020503 | 24 | 0 | 1.6 | 0.0 | 0.00 | 0.00 | 0.00 | 28 | 1016.3 |
| 20260831015503 | 25 | 238 | 8.0 | 12.9 | 0.00 | 0.00 | 0.00 | 28 | 1016.3 |
| 20260831015003 | 25 | 236 | 8.0 | 16.1 | 0.00 | 0.00 | 0.00 | 27 | 1016.3 |
| 20260831014503 | 25 | 219 | 11.3 | 12.9 | 0.00 | 0.00 | 0.00 | 26 | 1016.3 |
| 20260831014003 | 25 | 228 | 12.9 | 17.7 | 0.00 | 0.00 | 0.00 | 26 | 1016.3 |
| 20260831013503 | 25 | 227 | 12.9 | 17.7 | 0.00 | 0.00 | 0.00 | 24 | 1016.2 |
| 20260831012004 | 26 | 227 | 11.3 | 14.5 | 0.00 | 0.00 | 0.00 | 23 | 1016.3 |
| 20260831011503 | 26 | 234 | 9.7 | 17.7 | 0.00 | 0.00 | 0.00 | 23 | 1016.2 |
| 20260831011003 | 26 | 228 | 9.7 | 17.7 | 0.00 | 0.00 | 0.00 | 24 | 1016.3 |
| 20260831010004 | 26 | 240 | 14.5 | 20.9 | 0.00 | 0.00 | 0.00 | 22 | 1016.2 |
| 20260831005503 | 26 | 238 | 14.5 | 20.9 | 0.00 | 0.00 | 0.00 | 22 | 1016.2 |
| 20260831005003 | 27 | 240 | 12.9 | 19.3 | 0.00 | 0.00 | 0.00 | 24 | 1016.3 |
| 20260831004504 | 27 | 242 | 11.3 | 20.9 | 0.00 | 0.00 | 0.00 | 24 | 1016.2 |
| 20260831004003 | 27 | 242 | 12.9 | 17.7 | 0.00 | 0.00 | 0.00 | 25 | 1016.2 |
| 20260831003503 | 27 | 224 | 11.3 | 17.7 | 0.00 | 0.00 | 0.00 | 25 | 1016.3 |
| 20260831002503 | 26 | 229 | 11.3 | 19.3 | 0.00 | 0.00 | 0.00 | 25 | 1016.4 |
| 20260831002003 | 26 | 223 | 11.3 | 20.9 | 0.00 | 0.00 | 0.00 | 24 | 1016.2 |
| 20260831001503 | 26 | 221 | 11.3 | 16.1 | 0.00 | 0.00 | 0.00 | 25 | 1016.3 |
| 20260831001003 | 26 | 224 | 12.9 | 19.3 | 0.00 | 0.00 | 0.00 | 24 | 1016.1 |
| 20260831000504 | 26 | 220 | 16.1 | 19.3 | 0.00 | 0.00 | 0.00 | 25 | 1016.2 |
| 20260831000003 | 27 | 228 | 14.5 | 30.6 | 0.00 | 0.00 | 0.00 | 25 | 1016.2 |
| 20260830235503 | 27 | 230 | 12.9 | 25.7 | 0.00 | 0.00 | 0.00 | 25 | 1016.1 |
| 20260830235003 | 27 | 223 | 16.1 | 19.3 | 0.00 | 0.00 | 0.00 | 26 | 1016.2 |
| 20260830234503 | 27 | 223 | 19.3 | 22.5 | 0.00 | 0.00 | 0.00 | 25 | 1016.2 |
| 20260830234003 | 27 | 237 | 16.1 | 30.6 | 0.00 | 0.00 | 0.00 | 24 | 1016.2 |
| 20260830233003 | 27 | 235 | 14.5 | 20.9 | 0.00 | 0.00 | 0.00 | 23 | 1016.2 |
| 20260830232503 | 27 | 235 | 12.9 | 22.5 | 0.00 | 0.00 | 0.00 | 24 | 1016.3 |
| 20260830232003 | 26 | 240 | 11.3 | 25.7 | 0.00 | 0.00 | 0.00 | 24 | 1016.3 |
| 20260830231503 | 26 | 246 | 12.9 | 20.9 | 0.00 | 0.00 | 0.00 | 26 | 1016.4 |
| 20260830231004 | 26 | 247 | 14.5 | 19.3 | 0.00 | 0.00 | 0.00 | 27 | 1016.5 |
| 20260830230504 | 26 | 243 | 16.1 | 25.7 | 0.00 | 0.00 | 0.00 | 26 | 1016.5 |
| 20260830230003 | 26 | 234 | 17.7 | 29.0 | 0.00 | 0.00 | 0.00 | 26 | 1016.5 |
| 20260830225504 | 26 | 237 | 17.7 | 27.4 | 0.00 | 0.00 | 0.00 | 26 | 1016.5 |
| 20260830225003 | 26 | 239 | 16.1 | 27.4 | 0.00 | 0.00 | 0.00 | 26 | 1016.5 |
| 20260830224503 | 27 | 240 | 17.7 | 27.4 | 0.00 | 0.00 | 0.00 | 26 | 1016.5 |
| 20260830223503 | 27 | 232 | 20.9 | 32.2 | 0.00 | 0.00 | 0.00 | 23 | 1016.5 |
| 20260830223003 | 27 | 236 | 19.3 | 30.6 | 0.00 | 0.00 | 0.00 | 24 | 1016.4 |
| 20260830222504 | 28 | 241 | 19.3 | 30.6 | 0.00 | 0.00 | 0.00 | 22 | 1016.4 |
| 20260830221503 | 28 | 235 | 16.1 | 29.0 | 0.00 | 0.00 | 0.00 | 22 | 1016.5 |
| 20260830220504 | 28 | 238 | 12.9 | 25.7 | 0.00 | 0.00 | 0.00 | 22 | 1016.6 |
| 20260830220003 | 28 | 229 | 14.5 | 22.5 | 0.00 | 0.00 | 0.00 | 22 | 1016.6 |
| 20260830214503 | 28 | 241 | 9.7 | 25.7 | 0.00 | 0.00 | 0.00 | 21 | 1016.7 |
| 20260830213503 | 28 | 210 | 14.5 | 17.7 | 0.00 | 0.00 | 0.00 | 24 | 1016.9 |
| 20260830212505 | 27 | 243 | 16.1 | 25.7 | 0.00 | 0.00 | 0.00 | 23 | 1016.9 |
| 20260830212005 | 27 | 244 | 16.1 | 24.1 | 0.00 | 0.00 | 0.00 | 26 | 1017.0 |
| 20260830211506 | 27 | 249 | 16.1 | 24.1 | 0.00 | 0.00 | 0.00 | 24 | 1016.9 |
| 20260830211005 | 27 | 248 | 16.1 | 30.6 | 0.00 | 0.00 | 0.00 | 24 | 1017.0 |
| 20260830210505 | 27 | 246 | 17.7 | 25.7 | 0.00 | 0.00 | 0.00 | 25 | 1017.0 |
| 20260830210006 | 27 | 245 | 17.7 | 22.5 | 0.00 | 0.00 | 0.00 | 26 | 1016.9 |
| 20260830205506 | 27 | 247 | 16.1 | 27.4 | 0.00 | 0.00 | 0.00 | 26 | 1017.0 |
| 20260830204506 | 27 | 245 | 17.7 | 29.0 | 0.00 | 0.00 | 0.00 | 26 | 1017.1 |
| 20260830204006 | 27 | 240 | 17.7 | 27.4 | 0.00 | 0.00 | 0.00 | 26 | 1017.2 |
| 20260830203006 | 27 | 240 | 19.3 | 30.6 | 0.00 | 0.00 | 0.00 | 26 | 1017.3 |
| 20260830202506 | 27 | 232 | 17.7 | 29.0 | 0.00 | 0.00 | 0.00 | 26 | 1017.2 |
| 20260830202005 | 27 | 238 | 16.1 | 27.4 | 0.00 | 0.00 | 0.00 | 28 | 1017.4 |
| 20260830201505 | 27 | 240 | 14.5 | 27.4 | 0.00 | 0.00 | 0.00 | 26 | 1017.3 |
| 20260830200006 | 27 | 236 | 17.7 | 24.1 | 0.00 | 0.00 | 0.00 | 27 | 1017.3 |
| 20260830195506 | 27 | 236 | 19.3 | 25.7 | 0.00 | 0.00 | 0.00 | 27 | 1017.4 |
| 20260830194506 | 27 | 237 | 17.7 | 32.2 | 0.00 | 0.00 | 0.00 | 27 | 1017.5 |
| 20260830194005 | 26 | 237 | 19.3 | 33.8 | 0.00 | 0.00 | 0.00 | 28 | 1017.6 |
| 20260830193506 | 26 | 238 | 17.7 | 27.4 | 0.00 | 0.00 | 0.00 | 29 | 1017.6 |
| 20260830193006 | 26 | 240 | 17.7 | 27.4 | 0.00 | 0.00 | 0.00 | 28 | 1017.5 |
| 20260830192506 | 26 | 240 | 17.7 | 22.5 | 0.00 | 0.00 | 0.00 | 29 | 1017.6 |
| 20260830191005 | 26 | 240 | 19.3 | 30.6 | 0.00 | 0.00 | 0.00 | 33 | 1017.8 |
| 20260830190506 | 26 | 238 | 20.9 | 30.6 | 0.00 | 0.00 | 0.00 | 33 | 1017.7 |
| 20260830190005 | 26 | 234 | 20.9 | 32.2 | 0.00 | 0.00 | 0.00 | 34 | 1017.8 |
| 20260830185506 | 26 | 234 | 19.3 | 29.0 | 0.00 | 0.00 | 0.00 | 35 | 1017.7 |
| 20260830185006 | 26 | 237 | 19.3 | 29.0 | 0.00 | 0.00 | 0.00 | 36 | 1017.7 |
| 20260830184506 | 26 | 238 | 17.7 | 27.4 | 0.00 | 0.00 | 0.00 | 36 | 1017.7 |
| 20260830184006 | 26 | 236 | 17.7 | 25.7 | 0.00 | 0.00 | 0.00 | 36 | 1017.7 |
| 20260830183506 | 25 | 237 | 17.7 | 30.6 | 0.00 | 0.00 | 0.00 | 37 | 1017.8 |
| 20260830182506 | 25 | 237 | 14.5 | 24.1 | 0.00 | 0.00 | 0.00 | 38 | 1017.8 |
| 20260830182006 | 25 | 242 | 16.1 | 22.5 | 0.00 | 0.00 | 0.00 | 38 | 1017.7 |
| 20260830181006 | 25 | 236 | 17.7 | 30.6 | 0.00 | 0.00 | 0.00 | 38 | 1017.7 |
| 20260830175506 | 25 | 235 | 14.5 | 24.1 | 0.00 | 0.00 | 0.00 | 39 | 1017.8 |
| 20260830174506 | 25 | 240 | 17.7 | 27.4 | 0.00 | 0.00 | 0.00 | 39 | 1017.9 |
| 20260830173506 | 25 | 243 | 14.5 | 24.1 | 0.00 | 0.00 | 0.00 | 41 | 1018.0 |
| 20260830173006 | 24 | 240 | 11.3 | 24.1 | 0.00 | 0.00 | 0.00 | 42 | 1018.0 |
| 20260830171506 | 24 | 240 | 11.3 | 20.9 | 0.00 | 0.00 | 0.00 | 45 | 1018.1 |
| 20260830171006 | 24 | 250 | 9.7 | 16.1 | 0.00 | 0.00 | 0.00 | 45 | 1018.2 |
| 20260830170006 | 23 | 240 | 8.0 | 12.9 | 0.00 | 0.00 | 0.00 | 46 | 1018.0 |
| 20260830165505 | 23 | 244 | 8.0 | 16.1 | 0.00 | 0.00 | 0.00 | 46 | 1018.1 |
| 20260830165006 | 23 | 244 | 6.4 | 14.5 | 0.00 | 0.00 | 0.00 | 47 | 1018.1 |
| 20260830164506 | 23 | 237 | 4.8 | 14.5 | 0.00 | 0.00 | 0.00 | 48 | 1018.1 |
| 20260830164006 | 23 | 232 | 3.2 | 6.4 | 0.00 | 0.00 | 0.00 | 48 | 1018.2 |
| 20260830163006 | 22 | 237 | 1.6 | 8.0 | 0.00 | 0.00 | 0.00 | 50 | 1018.3 |
| 20260830162006 | 22 | 306 | 0.0 | 4.8 | 0.00 | 0.00 | 0.00 | 54 | 1018.3 |
| 20260830160506 | 20 | 51 | 0.0 | 1.6 | 0.00 | 0.00 | 0.00 | 59 | 1018.5 |
| 20260830160006 | 20 | 54 | 0.0 | 1.6 | 0.00 | 0.00 | 0.00 | 61 | 1018.6 |
| 20260830155506 | 18 | 60 | 0.0 | 1.6 | 0.00 | 0.00 | 0.00 | 63 | 1018.7 |
| 20260830155006 | 18 | 72 | 0.0 | 1.6 | 0.00 | 0.00 | 0.00 | 65 | 1018.6 |
| 20260830154506 | 17 | 0 | 0.0 | 0.0 | 0.00 | 0.00 | 0.00 | 66 | 1018.3 |
| 20260830153506 | 17 | 0 | 0.0 | 0.0 | 0.00 | 0.00 | 0.00 | 67 | 1018.4 |
| 20260830152503 | 17 | 0 | 0.0 | 0.0 | 0.00 | 0.00 | 0.00 | 60 | 1018.0 |
| 20260830152002 | 17 | 0 | 0.0 | 0.0 | 0.00 | 0.00 | 0.00 | 60 | 1018.0 |
| 20260830151503 | 17 | 0 | 0.0 | 0.0 | 0.00 | 0.00 | 0.00 | 60 | 1018.0 |
| 20260830151002 | 17 | 0 | 0.0 | 0.0 | 0.00 | 0.00 | 0.00 | 60 | 1018.0 |
| 20260830150003 | 17 | 0 | 0.0 | 0.0 | 0.00 | 0.00 | 0.00 | 60 | 1018.0 |
| 20260830145003 | 17 | 0 | 0.0 | 0.0 | 0.00 | 0.00 | 0.00 | 60 | 1018.0 |
| 20260830144503 | 17 | 0 | 0.0 | 0.0 | 0.00 | 0.00 | 0.00 | 60 | 1018.0 |
| 20260830144002 | 17 | 0 | 0.0 | 0.0 | 0.00 | 0.00 | 0.00 | 60 | 1018.0 |
| 20260830143002 | 17 | 0 | 0.0 | 0.0 | 0.00 | 0.00 | 0.00 | 60 | 1018.0 |
| 20260830142503 | 17 | 0 | 0.0 | 0.0 | 0.00 | 0.00 | 0.00 | 60 | 1018.0 |
| 20260830141502 | 17 | 0 | 0.0 | 0.0 | 0.00 | 0.00 | 0.00 | 60 | 1018.0 |
| 20260830140002 | 17 | 0 | 0.0 | 0.0 | 0.00 | 0.00 | 0.00 | 60 | 1018.0 |
| 20260830135003 | 17 | 0 | 0.0 | 0.0 | 0.00 | 0.00 | 0.00 | 60 | 1018.0 |
| 20260830134502 | 17 | 0 | 0.0 | 0.0 | 0.00 | 0.00 | 0.00 | 60 | 1018.0 |
| 20260830134003 | 17 | 0 | 0.0 | 0.0 | 0.00 | 0.00 | 0.00 | 60 | 1018.0 |
| 20260830133502 | 17 | 0 | 0.0 | 0.0 | 0.00 | 0.00 | 0.00 | 60 | 1018.0 |
| 20260830133003 | 17 | 0 | 0.0 | 0.0 | 0.00 | 0.00 | 0.00 | 60 | 1018.0 |
| 20260830132503 | 17 | 0 | 0.0 | 0.0 | 0.00 | 0.00 | 0.00 | 60 | 1018.0 |
| 20260830132002 | 17 | 0 | 0.0 | 0.0 | 0.00 | 0.00 | 0.00 | 60 | 1018.0 |
| 20260830131003 | 17 | 0 | 0.0 | 0.0 | 0.00 | 0.00 | 0.00 | 60 | 1018.0 |
| 20260830130502 | 17 | 0 | 0.0 | 0.0 | 0.00 | 0.00 | 0.00 | 60 | 1018.0 |
| 20260830130003 | 17 | 0 | 0.0 | 0.0 | 0.00 | 0.00 | 0.00 | 60 | 1018.0 |
| 20260830125502 | 17 | 0 | 0.0 | 0.0 | 0.00 | 0.00 | 0.00 | 60 | 1018.0 |
| 20260830125003 | 17 | 0 | 0.0 | 0.0 | 0.00 | 0.00 | 0.00 | 60 | 1018.0 |
| 20260830124502 | 17 | 0 | 0.0 | 0.0 | 0.00 | 0.00 | 0.00 | 60 | 1018.0 |
| 20260830124003 | 17 | 0 | 0.0 | 0.0 | 0.00 | 0.00 | 0.00 | 60 | 1018.0 |
| 20260830123503 | 17 | 0 | 0.0 | 0.0 | 0.00 | 0.00 | 0.00 | 60 | 1018.0 |
| 20260830123002 | 17 | 0 | 0.0 | 0.0 | 0.00 | 0.00 | 0.00 | 60 | 1018.0 |
| 20260830122503 | 17 | 0 | 0.0 | 0.0 | 0.00 | 0.00 | 0.00 | 60 | 1018.0 |
| 20260830122003 | 17 | 0 | 0.0 | 0.0 | 0.00 | 0.00 | 0.00 | 60 | 1018.0 |
| 20260830121503 | 17 | 0 | 0.0 | 0.0 | 0.00 | 0.00 | 0.00 | 60 | 1018.0 |
| 20260830121003 | 17 | 0 | 0.0 | 0.0 | 0.00 | 0.00 | 0.00 | 60 | 1018.0 |
| 20260830120502 | 17 | 0 | 0.0 | 0.0 | 0.00 | 0.00 | 0.00 | 60 | 1018.0 |
| 20260830120003 | 17 | 0 | 0.0 | 0.0 | 0.00 | 0.00 | 0.00 | 60 | 1018.0 |
| 20260830115502 | 17 | 0 | 0.0 | 0.0 | 0.00 | 0.00 | 0.00 | 60 | 1018.0 |
| 20260830115003 | 17 | 0 | 0.0 | 0.0 | 0.00 | 0.00 | 0.00 | 60 | 1018.0 |
| 20260830114502 | 17 | 0 | 0.0 | 0.0 | 0.00 | 0.00 | 0.00 | 60 | 1018.0 |
| 20260830114003 | 17 | 0 | 0.0 | 0.0 | 0.00 | 0.00 | 0.00 | 60 | 1018.0 |
| 20260830113503 | 17 | 0 | 0.0 | 0.0 | 0.00 | 0.00 | 0.00 | 60 | 1018.0 |
| 20260830113002 | 17 | 0 | 0.0 | 0.0 | 0.00 | 0.00 | 0.00 | 60 | 1018.0 |
| 20260830112503 | 17 | 0 | 0.0 | 0.0 | 0.00 | 0.00 | 0.00 | 60 | 1018.0 |
| 20260830112003 | 17 | 0 | 0.0 | 0.0 | 0.00 | 0.00 | 0.00 | 60 | 1018.0 |
| 20260830111002 | 17 | 0 | 0.0 | 0.0 | 0.00 | 0.00 | 0.00 | 60 | 1018.0 |
| 20260830110503 | 17 | 0 | 0.0 | 0.0 | 0.00 | 0.00 | 0.00 | 60 | 1018.0 |
| 20260830105503 | 17 | 0 | 0.0 | 0.0 | 0.00 | 0.00 | 0.00 | 60 | 1018.0 |
| 20260830105003 | 17 | 0 | 0.0 | 0.0 | 0.00 | 0.00 | 0.00 | 60 | 1018.0 |
| 20260830104502 | 17 | 0 | 0.0 | 0.0 | 0.00 | 0.00 | 0.00 | 60 | 1018.0 |
| 20260830104003 | 17 | 0 | 0.0 | 0.0 | 0.00 | 0.00 | 0.00 | 60 | 1018.0 |
| 20260830103503 | 17 | 0 | 0.0 | 0.0 | 0.00 | 0.00 | 0.00 | 60 | 1018.0 |
| 20260830103003 | 17 | 0 | 0.0 | 0.0 | 0.00 | 0.00 | 0.00 | 60 | 1018.0 |
| 20260830102503 | 17 | 0 | 0.0 | 0.0 | 0.00 | 0.00 | 0.00 | 60 | 1018.0 |
| 20260830102002 | 17 | 0 | 0.0 | 0.0 | 0.00 | 0.00 | 0.00 | 60 | 1018.0 |
| 20260830101503 | 17 | 0 | 0.0 | 0.0 | 0.00 | 0.00 | 0.00 | 60 | 1018.0 |
| 20260830101003 | 17 | 0 | 0.0 | 0.0 | 0.00 | 0.00 | 0.00 | 60 | 1018.0 |
| 20260830100503 | 17 | 0 | 0.0 | 0.0 | 0.00 | 0.00 | 0.00 | 60 | 1018.0 |
| 20260830100003 | 17 | 0 | 0.0 | 0.0 | 0.00 | 0.00 | 0.00 | 60 | 1018.0 |
| 20260830095503 | 17 | 0 | 0.0 | 0.0 | 0.00 | 0.00 | 0.00 | 60 | 1018.0 |
| 20260830095003 | 17 | 0 | 0.0 | 0.0 | 0.00 | 0.00 | 0.00 | 60 | 1018.0 |
| 20260830094503 | 17 | 0 | 0.0 | 0.0 | 0.00 | 0.00 | 0.00 | 60 | 1018.0 |
| 20260830094003 | 17 | 0 | 0.0 | 0.0 | 0.00 | 0.00 | 0.00 | 60 | 1018.0 |
| 20260830093502 | 17 | 0 | 0.0 | 0.0 | 0.00 | 0.00 | 0.00 | 60 | 1018.0 |
| 20260830093003 | 17 | 0 | 0.0 | 0.0 | 0.00 | 0.00 | 0.00 | 60 | 1018.0 |
| 20260830092503 | 17 | 0 | 0.0 | 0.0 | 0.00 | 0.00 | 0.00 | 60 | 1018.0 |
| 20260830092003 | 17 | 0 | 0.0 | 0.0 | 0.00 | 0.00 | 0.00 | 60 | 1018.0 |
| 20260830091002 | 17 | 0 | 0.0 | 0.0 | 0.00 | 0.00 | 0.00 | 60 | 1018.0 |
| 20260830090503 | 17 | 0 | 0.0 | 0.0 | 0.00 | 0.00 | 0.00 | 60 | 1018.0 |
| 20260830090003 | 17 | 0 | 0.0 | 0.0 | 0.00 | 0.00 | 0.00 | 60 | 1018.0 |
| 20260830085503 | 17 | 0 | 0.0 | 0.0 | 0.00 | 0.00 | 0.00 | 60 | 1018.0 |
| 20260830085003 | 17 | 0 | 0.0 | 0.0 | 0.00 | 0.00 | 0.00 | 60 | 1018.0 |
| 20260830084502 | 17 | 0 | 0.0 | 0.0 | 0.00 | 0.00 | 0.00 | 60 | 1018.0 |
| 20260830084003 | 17 | 0 | 0.0 | 0.0 | 0.00 | 0.00 | 0.00 | 60 | 1018.0 |
| 20260830083503 | 17 | 0 | 0.0 | 0.0 | 0.00 | 0.00 | 0.00 | 60 | 1018.0 |
| 20260830083003 | 17 | 0 | 0.0 | 0.0 | 0.00 | 0.00 | 0.00 | 60 | 1018.0 |
| 20260830082002 | 17 | 0 | 0.0 | 0.0 | 0.00 | 0.00 | 0.00 | 60 | 1018.0 |
| 20260830081503 | 17 | 0 | 0.0 | 0.0 | 0.00 | 0.00 | 0.00 | 60 | 1018.0 |
| 20260830081003 | 17 | 0 | 0.0 | 0.0 | 0.00 | 0.00 | 0.00 | 60 | 1018.0 |